Year,Month,Day,Hour,Minute,Value (Times are PST for temperature in C)
2009,07,28,00,00,23.80
2009,07,28,00,01,23.80
2009,07,28,00,02,23.80
2009,07,28,00,03,23.80
2009,07,28,00,04,23.70
2009,07,28,00,05,23.70
2009,07,28,00,06,23.70
2009,07,28,00,07,23.70
2009,07,28,00,08,23.60
2009,07,28,00,09,23.60
2009,07,28,00,10,23.60
2009,07,28,00,11,23.50
2009,07,28,00,12,23.40
2009,07,28,00,13,23.40
2009,07,28,00,14,23.30
2009,07,28,00,15,23.30
2009,07,28,00,16,23.30
2009,07,28,00,17,23.30
2009,07,28,00,18,23.20
2009,07,28,00,19,23.20
2009,07,28,00,20,23.20
2009,07,28,00,21,23.20
2009,07,28,00,22,23.20
2009,07,28,00,23,23.20
2009,07,28,00,24,23.20
2009,07,28,00,25,23.10
2009,07,28,00,26,23.10
2009,07,28,00,27,23.10
2009,07,28,00,28,23.10
2009,07,28,00,29,23.00
2009,07,28,00,30,23.00
2009,07,28,00,31,23.00
2009,07,28,00,32,23.00
2009,07,28,00,33,23.00
2009,07,28,00,34,23.00
2009,07,28,00,35,23.00
2009,07,28,00,36,23.00
2009,07,28,00,37,23.00
2009,07,28,00,38,23.00
2009,07,28,00,39,23.00
2009,07,28,00,40,23.00
2009,07,28,00,41,23.00
2009,07,28,00,42,23.00
2009,07,28,00,43,23.00
2009,07,28,00,44,23.00
2009,07,28,00,45,22.90
2009,07,28,00,46,23.00
2009,07,28,00,47,23.00
2009,07,28,00,48,23.00
2009,07,28,00,49,23.10
2009,07,28,00,50,23.10
2009,07,28,00,51,23.10
2009,07,28,00,52,23.10
2009,07,28,00,53,23.20
2009,07,28,00,54,23.20
2009,07,28,00,55,23.30
2009,07,28,00,56,23.30
2009,07,28,00,57,23.30
2009,07,28,00,58,23.30
2009,07,28,00,59,23.40
2009,07,28,01,00,23.40
2009,07,28,01,01,23.40
2009,07,28,01,02,23.40
2009,07,28,01,03,23.40
2009,07,28,01,04,23.50
2009,07,28,01,05,23.50
2009,07,28,01,06,23.50
2009,07,28,01,07,23.50
2009,07,28,01,08,23.50
2009,07,28,01,09,23.50
2009,07,28,01,10,23.60
2009,07,28,01,11,23.60
2009,07,28,01,12,23.60
2009,07,28,01,13,23.60
2009,07,28,01,14,23.60
2009,07,28,01,15,23.60
2009,07,28,01,16,23.60
2009,07,28,01,17,23.70
2009,07,28,01,18,23.70
2009,07,28,01,19,23.70
2009,07,28,01,20,23.70
2009,07,28,01,21,23.70
2009,07,28,01,22,23.70
2009,07,28,01,23,23.70
2009,07,28,01,24,23.70
2009,07,28,01,25,23.70
2009,07,28,01,26,23.70
2009,07,28,01,27,23.70
2009,07,28,01,28,23.80
2009,07,28,01,29,23.80
2009,07,28,01,30,23.80
2009,07,28,01,31,23.80
2009,07,28,01,32,23.80
2009,07,28,01,33,23.80
2009,07,28,01,34,23.80
2009,07,28,01,35,23.80
2009,07,28,01,36,23.80
2009,07,28,01,37,23.80
2009,07,28,01,38,23.80
2009,07,28,01,39,23.70
2009,07,28,01,40,23.70
2009,07,28,01,41,23.70
2009,07,28,01,42,23.70
2009,07,28,01,43,23.70
2009,07,28,01,44,23.70
2009,07,28,01,45,23.70
2009,07,28,01,46,23.70
2009,07,28,01,47,23.70
2009,07,28,01,48,23.70
2009,07,28,01,49,23.70
2009,07,28,01,50,23.70
2009,07,28,01,51,23.70
2009,07,28,01,52,23.70
2009,07,28,01,53,23.80
2009,07,28,01,54,23.70
2009,07,28,01,55,23.70
2009,07,28,01,56,23.70
2009,07,28,01,57,23.70
2009,07,28,01,58,23.70
2009,07,28,01,59,23.70
2009,07,28,02,00,23.70
2009,07,28,02,01,23.70
2009,07,28,02,02,23.70
2009,07,28,02,03,23.70
2009,07,28,02,04,23.70
2009,07,28,02,05,23.70
2009,07,28,02,06,23.60
2009,07,28,02,07,23.60
2009,07,28,02,08,23.60
2009,07,28,02,09,23.60
2009,07,28,02,10,23.60
2009,07,28,02,11,23.60
2009,07,28,02,12,23.60
2009,07,28,02,13,23.60
2009,07,28,02,14,23.50
2009,07,28,02,15,23.50
2009,07,28,02,16,23.50
2009,07,28,02,17,23.50
2009,07,28,02,18,23.50
2009,07,28,02,19,23.50
2009,07,28,02,20,23.50
2009,07,28,02,21,23.40
2009,07,28,02,22,23.40
2009,07,28,02,23,23.40
2009,07,28,02,24,23.40
2009,07,28,02,25,23.40
2009,07,28,02,26,23.40
2009,07,28,02,27,23.40
2009,07,28,02,28,23.30
2009,07,28,02,29,23.30
2009,07,28,02,30,23.30
2009,07,28,02,31,23.30
2009,07,28,02,32,23.30
2009,07,28,02,33,23.20
2009,07,28,02,34,23.20
2009,07,28,02,35,23.20
2009,07,28,02,36,23.20
2009,07,28,02,37,23.10
2009,07,28,02,38,23.10
2009,07,28,02,39,23.10
2009,07,28,02,40,23.00
2009,07,28,02,41,23.00
2009,07,28,02,42,23.00
2009,07,28,02,43,22.90
2009,07,28,02,44,22.90
2009,07,28,02,45,22.90
2009,07,28,02,46,22.90
2009,07,28,02,47,22.80
2009,07,28,02,48,22.80
2009,07,28,02,49,22.80
2009,07,28,02,50,22.80
2009,07,28,02,51,22.80
2009,07,28,02,52,22.80
2009,07,28,02,53,22.80
2009,07,28,02,54,22.70
2009,07,28,02,55,22.70
2009,07,28,02,56,22.70
2009,07,28,02,57,22.70
2009,07,28,02,58,22.70
2009,07,28,02,59,22.70
2009,07,28,03,00,22.70
2009,07,28,03,01,22.70
2009,07,28,03,02,22.70
2009,07,28,03,06,22.60
2009,07,28,03,07,22.60
2009,07,28,03,08,22.60
2009,07,28,03,09,22.60
2009,07,28,03,10,22.60
2009,07,28,03,11,22.60
2009,07,28,03,12,22.60
2009,07,28,03,13,22.60
2009,07,28,03,14,22.50
2009,07,28,03,15,22.50
2009,07,28,03,16,22.50
2009,07,28,03,17,22.50
2009,07,28,03,18,22.40
2009,07,28,03,19,22.40
2009,07,28,03,20,22.40
2009,07,28,03,21,22.40
2009,07,28,03,22,22.30
2009,07,28,03,23,22.30
2009,07,28,03,24,22.30
2009,07,28,03,25,22.30
2009,07,28,03,26,22.30
2009,07,28,03,27,22.30
2009,07,28,03,28,22.30
2009,07,28,03,29,22.30
2009,07,28,03,30,22.40
2009,07,28,03,31,22.40
2009,07,28,03,32,22.40
2009,07,28,03,33,22.50
2009,07,28,03,34,22.50
2009,07,28,03,35,22.60
2009,07,28,03,36,22.70
2009,07,28,03,37,22.70
2009,07,28,03,38,22.70
2009,07,28,03,39,22.80
2009,07,28,03,40,22.80
2009,07,28,03,41,22.80
2009,07,28,03,42,22.80
2009,07,28,03,43,22.80
2009,07,28,03,44,22.80
2009,07,28,03,45,22.80
2009,07,28,03,46,22.90
2009,07,28,03,47,22.80
2009,07,28,03,48,22.80
2009,07,28,03,49,22.80
2009,07,28,03,50,22.80
2009,07,28,03,51,22.70
2009,07,28,03,52,22.70
2009,07,28,03,53,22.60
2009,07,28,03,54,22.60
2009,07,28,03,55,22.60
2009,07,28,03,56,22.50
2009,07,28,03,57,22.50
2009,07,28,03,58,22.40
2009,07,28,03,59,22.40
2009,07,28,04,00,22.30
2009,07,28,04,01,22.30
2009,07,28,04,02,22.30
2009,07,28,04,03,22.20
2009,07,28,04,04,22.20
2009,07,28,04,05,22.10
2009,07,28,04,06,22.00
2009,07,28,04,07,21.90
2009,07,28,04,08,21.90
2009,07,28,04,09,21.80
2009,07,28,04,10,21.80
2009,07,28,04,11,21.80
2009,07,28,04,12,21.70
2009,07,28,04,13,21.70
2009,07,28,04,14,21.70
2009,07,28,04,15,21.60
2009,07,28,04,16,21.60
2009,07,28,04,17,21.50
2009,07,28,04,18,21.50
2009,07,28,04,19,21.40
2009,07,28,04,20,21.40
2009,07,28,04,21,21.30
2009,07,28,04,22,21.20
2009,07,28,04,23,21.20
2009,07,28,04,24,21.20
2009,07,28,04,25,21.10
2009,07,28,04,26,21.10
2009,07,28,04,27,21.10
2009,07,28,04,28,21.00
2009,07,28,04,29,20.90
2009,07,28,04,30,20.90
2009,07,28,04,31,20.80
2009,07,28,04,32,20.80
2009,07,28,04,33,20.80
2009,07,28,04,34,20.80
2009,07,28,04,35,20.80
2009,07,28,04,36,20.70
2009,07,28,04,37,20.70
2009,07,28,04,38,20.70
2009,07,28,04,39,20.60
2009,07,28,04,40,20.60
2009,07,28,04,41,20.60
2009,07,28,04,42,20.50
2009,07,28,04,43,20.50
2009,07,28,04,44,20.50
2009,07,28,04,45,20.40
2009,07,28,04,46,20.40
2009,07,28,04,47,20.40
2009,07,28,04,48,20.40
2009,07,28,04,49,20.40
2009,07,28,04,50,20.40
2009,07,28,04,51,20.30
2009,07,28,04,52,20.30
2009,07,28,04,53,20.30
2009,07,28,04,54,20.30
2009,07,28,04,55,20.20
2009,07,28,04,56,20.20
2009,07,28,04,57,20.20
2009,07,28,04,58,20.20
2009,07,28,04,59,20.10
2009,07,28,05,00,20.10
2009,07,28,05,01,20.10
2009,07,28,05,02,20.10
2009,07,28,05,03,20.10
2009,07,28,05,04,20.00
2009,07,28,05,05,20.00
2009,07,28,05,06,20.00
2009,07,28,05,07,20.00
2009,07,28,05,08,20.00
2009,07,28,05,09,19.90
2009,07,28,05,10,19.90
2009,07,28,05,11,19.90
2009,07,28,05,12,19.90
2009,07,28,05,13,19.90
2009,07,28,05,14,19.80
2009,07,28,05,15,19.80
2009,07,28,05,16,19.70
2009,07,28,05,17,19.60
2009,07,28,05,18,19.60
2009,07,28,05,19,19.50
2009,07,28,05,20,19.50
2009,07,28,05,21,19.50
2009,07,28,05,22,19.50
2009,07,28,05,23,19.50
2009,07,28,05,24,19.40
2009,07,28,05,25,19.50
2009,07,28,05,26,19.40
2009,07,28,05,27,19.40
2009,07,28,05,28,19.40
2009,07,28,05,29,19.40
2009,07,28,05,30,19.40
2009,07,28,05,31,19.40
2009,07,28,05,32,19.40
2009,07,28,05,33,19.40
2009,07,28,05,34,19.40
2009,07,28,05,35,19.40
2009,07,28,05,36,19.40
2009,07,28,05,37,19.40
2009,07,28,05,38,19.40
2009,07,28,05,39,19.30
2009,07,28,05,40,19.30
2009,07,28,05,41,19.30
2009,07,28,05,42,19.30
2009,07,28,05,43,19.30
2009,07,28,05,44,19.20
2009,07,28,05,45,19.20
2009,07,28,05,46,19.20
2009,07,28,05,47,19.20
2009,07,28,05,48,19.20
2009,07,28,05,49,19.20
2009,07,28,05,50,19.20
2009,07,28,05,51,19.10
2009,07,28,05,52,19.10
2009,07,28,05,53,19.00
2009,07,28,05,54,18.90
2009,07,28,05,55,18.90
2009,07,28,05,56,18.80
2009,07,28,05,57,18.80
2009,07,28,05,58,18.80
2009,07,28,05,59,18.80
2009,07,28,06,00,18.70
2009,07,28,06,01,18.70
2009,07,28,06,02,18.70
2009,07,28,06,03,18.70
2009,07,28,06,04,18.70
2009,07,28,06,05,18.70
2009,07,28,06,06,18.70
2009,07,28,06,07,18.70
2009,07,28,06,08,18.70
2009,07,28,06,09,18.70
2009,07,28,06,10,18.70
2009,07,28,06,11,18.70
2009,07,28,06,12,18.70
2009,07,28,06,13,18.70
2009,07,28,06,14,18.70
2009,07,28,06,15,18.70
2009,07,28,06,16,18.70
2009,07,28,06,17,18.70
2009,07,28,06,18,18.80
2009,07,28,06,19,18.80
2009,07,28,06,20,18.80
2009,07,28,06,21,18.80
2009,07,28,06,22,18.80
2009,07,28,06,23,18.80
2009,07,28,06,24,18.80
2009,07,28,06,25,18.80
2009,07,28,06,26,18.80
2009,07,28,06,27,18.80
2009,07,28,06,28,18.80
2009,07,28,06,29,18.80
2009,07,28,06,30,18.80
2009,07,28,06,31,18.80
2009,07,28,06,32,18.80
2009,07,28,06,33,18.80
2009,07,28,06,34,18.80
2009,07,28,06,35,18.90
2009,07,28,06,36,18.90
2009,07,28,06,37,18.90
2009,07,28,06,38,18.90
2009,07,28,06,39,19.00
2009,07,28,06,40,19.00
2009,07,28,06,41,19.10
2009,07,28,06,42,19.20
2009,07,28,06,43,19.30
2009,07,28,06,44,19.40
2009,07,28,06,45,19.50
2009,07,28,06,46,19.60
2009,07,28,06,47,19.60
2009,07,28,06,48,19.60
2009,07,28,06,49,19.70
2009,07,28,06,50,19.70
2009,07,28,06,51,19.70
2009,07,28,06,52,19.70
2009,07,28,06,53,19.70
2009,07,28,06,54,19.70
2009,07,28,06,55,19.70
2009,07,28,06,56,19.70
2009,07,28,06,57,19.70
2009,07,28,06,58,19.70
2009,07,28,06,59,19.70
2009,07,28,07,00,19.70
2009,07,28,07,01,19.70
2009,07,28,07,02,19.80
2009,07,28,07,03,19.80
2009,07,28,07,04,19.80
2009,07,28,07,05,19.80
2009,07,28,07,06,19.80
2009,07,28,07,07,19.90
2009,07,28,07,08,19.90
2009,07,28,07,09,19.90
2009,07,28,07,10,20.00
2009,07,28,07,11,20.00
2009,07,28,07,12,20.10
2009,07,28,07,13,20.10
2009,07,28,07,14,20.10
2009,07,28,07,15,20.20
2009,07,28,07,16,20.20
2009,07,28,07,17,20.30
2009,07,28,07,18,20.40
2009,07,28,07,19,20.40
2009,07,28,07,20,20.50
2009,07,28,07,21,20.60
2009,07,28,07,22,20.60
2009,07,28,07,23,20.70
2009,07,28,07,24,20.80
2009,07,28,07,25,20.80
2009,07,28,07,26,20.90
2009,07,28,07,27,21.00
2009,07,28,07,28,21.10
2009,07,28,07,29,21.20
2009,07,28,07,30,21.20
2009,07,28,07,31,21.30
2009,07,28,07,32,21.30
2009,07,28,07,33,21.40
2009,07,28,07,34,21.50
2009,07,28,07,35,21.60
2009,07,28,07,36,21.60
2009,07,28,07,37,21.70
2009,07,28,07,38,21.80
2009,07,28,07,39,21.80
2009,07,28,07,40,21.90
2009,07,28,07,41,21.90
2009,07,28,07,42,22.00
2009,07,28,07,43,22.00
2009,07,28,07,44,22.10
2009,07,28,07,45,22.10
2009,07,28,07,46,22.20
2009,07,28,07,47,22.20
2009,07,28,07,48,22.30
2009,07,28,07,49,22.30
2009,07,28,07,50,22.40
2009,07,28,07,51,22.40
2009,07,28,07,52,22.50
2009,07,28,07,53,22.50
2009,07,28,07,54,22.60
2009,07,28,07,55,22.60
2009,07,28,07,56,22.70
2009,07,28,07,57,22.80
2009,07,28,07,58,22.80
2009,07,28,07,59,22.90
2009,07,28,08,00,23.00
2009,07,28,08,01,23.00
2009,07,28,08,02,23.10
2009,07,28,08,03,23.20
2009,07,28,08,04,23.20
2009,07,28,08,05,23.30
2009,07,28,08,06,23.40
2009,07,28,08,07,23.50
2009,07,28,08,08,23.60
2009,07,28,08,09,23.70
2009,07,28,08,10,23.80
2009,07,28,08,11,23.90
2009,07,28,08,12,24.00
2009,07,28,08,13,24.10
2009,07,28,08,14,24.20
2009,07,28,08,15,24.30
2009,07,28,08,16,24.40
2009,07,28,08,17,24.50
2009,07,28,08,18,24.50
2009,07,28,08,19,24.60
2009,07,28,08,20,24.70
2009,07,28,08,21,24.70
2009,07,28,08,22,24.80
2009,07,28,08,23,24.90
2009,07,28,08,24,24.90
2009,07,28,08,25,25.00
2009,07,28,08,26,25.00
2009,07,28,08,27,25.10
2009,07,28,08,28,25.20
2009,07,28,08,29,25.30
2009,07,28,08,30,25.30
2009,07,28,08,31,25.40
2009,07,28,08,32,25.50
2009,07,28,08,33,25.60
2009,07,28,08,34,25.70
2009,07,28,08,35,25.80
2009,07,28,08,36,25.90
2009,07,28,08,37,26.00
2009,07,28,08,38,26.10
2009,07,28,08,39,26.20
2009,07,28,08,40,26.30
2009,07,28,08,41,26.40
2009,07,28,08,42,26.50
2009,07,28,08,43,26.60
2009,07,28,08,44,26.60
2009,07,28,08,45,26.70
2009,07,28,08,46,26.80
2009,07,28,08,47,26.90
2009,07,28,08,48,27.00
2009,07,28,08,49,27.00
2009,07,28,08,50,27.10
2009,07,28,08,51,27.20
2009,07,28,08,52,27.20
2009,07,28,08,53,27.30
2009,07,28,08,54,27.40
2009,07,28,08,55,27.50
2009,07,28,08,56,27.60
2009,07,28,08,57,27.60
2009,07,28,08,58,27.70
2009,07,28,08,59,27.80
2009,07,28,09,00,27.80
2009,07,28,09,01,27.80
2009,07,28,09,02,27.80
2009,07,28,09,03,27.90
2009,07,28,09,04,27.90
2009,07,28,09,05,27.90
2009,07,28,09,06,28.00
2009,07,28,09,07,28.00
2009,07,28,09,08,28.10
2009,07,28,09,09,28.10
2009,07,28,09,10,28.10
2009,07,28,09,11,28.20
2009,07,28,09,12,28.20
2009,07,28,09,13,28.20
2009,07,28,09,14,28.20
2009,07,28,09,15,28.20
2009,07,28,09,16,28.30
2009,07,28,09,17,28.30
2009,07,28,09,18,28.40
2009,07,28,09,19,28.40
2009,07,28,09,20,28.50
2009,07,28,09,21,28.50
2009,07,28,09,22,28.60
2009,07,28,09,23,28.60
2009,07,28,09,24,28.70
2009,07,28,09,25,28.70
2009,07,28,09,26,28.70
2009,07,28,09,27,28.70
2009,07,28,09,28,28.70
2009,07,28,09,29,28.70
2009,07,28,09,30,28.70
2009,07,28,09,31,28.80
2009,07,28,09,32,28.90
2009,07,28,09,33,28.90
2009,07,28,09,34,28.90
2009,07,28,09,35,28.90
2009,07,28,09,36,28.90
2009,07,28,09,37,29.00
2009,07,28,09,38,29.00
2009,07,28,09,39,29.00
2009,07,28,09,40,29.10
2009,07,28,09,41,29.10
2009,07,28,09,42,29.20
2009,07,28,09,43,29.30
2009,07,28,09,44,29.30
2009,07,28,09,45,29.40
2009,07,28,09,46,29.40
2009,07,28,09,47,29.40
2009,07,28,09,48,29.40
2009,07,28,09,49,29.50
2009,07,28,09,50,29.50
2009,07,28,09,51,29.60
2009,07,28,09,52,29.70
2009,07,28,09,53,29.70
2009,07,28,09,54,29.80
2009,07,28,09,55,29.80
2009,07,28,09,56,29.90
2009,07,28,09,57,30.00
2009,07,28,09,58,30.10
2009,07,28,09,59,30.10
2009,07,28,10,00,30.20
2009,07,28,10,01,30.30
2009,07,28,10,02,30.40
2009,07,28,10,03,30.40
2009,07,28,10,04,30.40
2009,07,28,10,05,30.40
2009,07,28,10,06,30.40
2009,07,28,10,07,30.40
2009,07,28,10,08,30.50
2009,07,28,10,09,30.50
2009,07,28,10,10,30.40
2009,07,28,10,11,30.40
2009,07,28,10,12,30.30
2009,07,28,10,13,30.20
2009,07,28,10,14,30.20
2009,07,28,10,15,30.10
2009,07,28,10,16,30.10
2009,07,28,10,17,30.10
2009,07,28,10,18,30.10
2009,07,28,10,19,30.10
2009,07,28,10,20,30.10
2009,07,28,10,21,30.20
2009,07,28,10,22,30.20
2009,07,28,10,23,30.30
2009,07,28,10,24,30.30
2009,07,28,10,25,30.20
2009,07,28,10,26,30.20
2009,07,28,10,27,30.20
2009,07,28,10,28,30.30
2009,07,28,10,29,30.40
2009,07,28,10,30,30.50
2009,07,28,10,31,30.60
2009,07,28,10,32,30.60
2009,07,28,10,33,30.70
2009,07,28,10,34,30.70
2009,07,28,10,35,30.70
2009,07,28,10,36,30.70
2009,07,28,10,37,30.70
2009,07,28,10,38,30.70
2009,07,28,10,39,30.70
2009,07,28,10,40,30.80
2009,07,28,10,41,30.90
2009,07,28,10,42,31.00
2009,07,28,10,43,31.00
2009,07,28,10,44,31.10
2009,07,28,10,45,31.10
2009,07,28,10,46,31.10
2009,07,28,10,47,31.20
2009,07,28,10,48,31.20
2009,07,28,10,49,31.20
2009,07,28,10,50,31.30
2009,07,28,10,51,31.40
2009,07,28,10,52,31.50
2009,07,28,10,53,31.50
2009,07,28,10,54,31.60
2009,07,28,10,55,31.70
2009,07,28,10,56,31.80
2009,07,28,10,57,31.90
2009,07,28,10,58,31.90
2009,07,28,10,59,32.00
2009,07,28,11,00,32.00
2009,07,28,11,01,32.10
2009,07,28,11,02,32.10
2009,07,28,11,03,32.10
2009,07,28,11,04,32.00
2009,07,28,11,05,31.90
2009,07,28,11,06,31.90
2009,07,28,11,07,31.80
2009,07,28,11,08,31.80
2009,07,28,11,09,31.80
2009,07,28,11,10,31.80
2009,07,28,11,11,31.90
2009,07,28,11,12,31.90
2009,07,28,11,13,31.90
2009,07,28,11,14,32.00
2009,07,28,11,15,32.00
2009,07,28,11,16,32.00
2009,07,28,11,17,32.10
2009,07,28,11,18,32.10
2009,07,28,11,19,32.10
2009,07,28,11,20,32.10
2009,07,28,11,21,32.10
2009,07,28,11,22,32.10
2009,07,28,11,23,32.00
2009,07,28,11,24,31.90
2009,07,28,11,25,31.80
2009,07,28,11,26,31.80
2009,07,28,11,27,31.80
2009,07,28,11,28,31.80
2009,07,28,11,29,31.80
2009,07,28,11,30,31.80
2009,07,28,11,31,31.80
2009,07,28,11,32,31.80
2009,07,28,11,33,31.90
2009,07,28,11,34,31.90
2009,07,28,11,35,32.00
2009,07,28,11,36,32.00
2009,07,28,11,37,32.10
2009,07,28,11,38,32.10
2009,07,28,11,39,32.10
2009,07,28,11,40,31.90
2009,07,28,11,41,31.90
2009,07,28,11,42,31.80
2009,07,28,11,43,31.80
2009,07,28,11,44,31.80
2009,07,28,11,45,31.70
2009,07,28,11,46,31.60
2009,07,28,11,47,31.60
2009,07,28,11,48,31.60
2009,07,28,11,49,31.60
2009,07,28,11,50,31.60
2009,07,28,11,51,31.70
2009,07,28,11,52,31.80
2009,07,28,11,53,31.80
2009,07,28,11,54,31.80
2009,07,28,11,55,31.90
2009,07,28,11,56,32.00
2009,07,28,11,57,32.10
2009,07,28,11,58,32.10
2009,07,28,11,59,32.20
2009,07,28,12,00,32.10
2009,07,28,12,01,32.10
2009,07,28,12,02,32.20
2009,07,28,12,03,32.30
2009,07,28,12,04,32.30
2009,07,28,12,05,32.30
2009,07,28,12,06,32.30
2009,07,28,12,07,32.40
2009,07,28,12,08,32.40
2009,07,28,12,09,32.40
2009,07,28,12,10,32.40
2009,07,28,12,11,32.40
2009,07,28,12,12,32.30
2009,07,28,12,13,32.30
2009,07,28,12,14,32.30
2009,07,28,12,15,32.30
2009,07,28,12,16,32.30
2009,07,28,12,17,32.30
2009,07,28,12,18,32.20
2009,07,28,12,19,32.20
2009,07,28,12,20,32.10
2009,07,28,12,21,32.10
2009,07,28,12,22,32.10
2009,07,28,12,23,32.10
2009,07,28,12,24,32.10
2009,07,28,12,25,32.10
2009,07,28,12,26,32.10
2009,07,28,12,27,32.10
2009,07,28,12,28,32.10
2009,07,28,12,29,32.10
2009,07,28,12,30,32.20
2009,07,28,12,31,32.20
2009,07,28,12,32,32.20
2009,07,28,12,33,32.30
2009,07,28,12,34,32.30
2009,07,28,12,35,32.30
2009,07,28,12,36,32.40
2009,07,28,12,37,32.50
2009,07,28,12,38,32.50
2009,07,28,12,39,32.60
2009,07,28,12,40,32.70
2009,07,28,12,41,32.70
2009,07,28,12,42,32.70
2009,07,28,12,43,32.70
2009,07,28,12,44,32.70
2009,07,28,12,45,32.80
2009,07,28,12,46,32.90
2009,07,28,12,47,32.90
2009,07,28,12,48,33.00
2009,07,28,12,49,33.00
2009,07,28,12,50,33.10
2009,07,28,12,51,33.20
2009,07,28,12,52,33.20
2009,07,28,12,53,33.20
2009,07,28,12,54,33.30
2009,07,28,12,55,33.40
2009,07,28,12,56,33.50
2009,07,28,12,57,33.60
2009,07,28,12,58,33.70
2009,07,28,12,59,33.70
2009,07,28,13,00,33.80
2009,07,28,13,01,33.90
2009,07,28,13,02,34.00
2009,07,28,13,03,34.10
2009,07,28,13,04,34.10
2009,07,28,13,05,34.20
2009,07,28,13,06,34.30
2009,07,28,13,07,34.30
2009,07,28,13,08,34.30
2009,07,28,13,09,34.30
2009,07,28,13,10,34.30
2009,07,28,13,11,34.30
2009,07,28,13,12,34.30
2009,07,28,13,13,34.30
2009,07,28,13,14,34.30
2009,07,28,13,15,34.30
2009,07,28,13,16,34.40
2009,07,28,13,17,34.40
2009,07,28,13,18,34.50
2009,07,28,13,19,34.60
2009,07,28,13,20,34.80
2009,07,28,13,21,34.90
2009,07,28,13,22,34.90
2009,07,28,13,23,34.90
2009,07,28,13,24,35.00
2009,07,28,13,25,35.00
2009,07,28,13,26,35.00
2009,07,28,13,27,34.90
2009,07,28,13,28,34.90
2009,07,28,13,29,34.90
2009,07,28,13,30,34.90
2009,07,28,13,31,34.90
2009,07,28,13,32,34.90
2009,07,28,13,33,34.90
2009,07,28,13,34,34.90
2009,07,28,13,35,34.90
2009,07,28,13,36,34.90
2009,07,28,13,37,34.90
2009,07,28,13,38,34.90
2009,07,28,13,39,34.90
2009,07,28,13,40,34.90
2009,07,28,13,41,35.00
2009,07,28,13,42,35.10
2009,07,28,13,43,35.10
2009,07,28,13,44,35.20
2009,07,28,13,45,35.30
2009,07,28,13,46,35.30
2009,07,28,13,47,35.30
2009,07,28,13,48,35.30
2009,07,28,13,49,35.30
2009,07,28,13,50,35.30
2009,07,28,13,51,35.20
2009,07,28,13,52,35.20
2009,07,28,13,53,35.20
2009,07,28,13,54,35.20
2009,07,28,13,55,35.20
2009,07,28,13,56,35.20
2009,07,28,13,57,35.30
2009,07,28,13,58,35.30
2009,07,28,13,59,35.40
2009,07,28,14,00,35.60
2009,07,28,14,01,35.70
2009,07,28,14,02,35.70
2009,07,28,14,03,35.70
2009,07,28,14,04,35.70
2009,07,28,14,05,35.70
2009,07,28,14,06,35.70
2009,07,28,14,07,35.60
2009,07,28,14,08,35.60
2009,07,28,14,09,35.70
2009,07,28,14,10,35.80
2009,07,28,14,11,35.80
2009,07,28,14,12,35.80
2009,07,28,14,13,35.90
2009,07,28,14,14,35.90
2009,07,28,14,15,35.90
2009,07,28,14,16,35.90
2009,07,28,14,17,36.00
2009,07,28,14,18,36.10
2009,07,28,14,19,36.20
2009,07,28,14,20,36.10
2009,07,28,14,21,36.10
2009,07,28,14,22,36.10
2009,07,28,14,23,36.20
2009,07,28,14,24,36.20
2009,07,28,14,25,36.30
2009,07,28,14,26,36.30
2009,07,28,14,27,36.30
2009,07,28,14,28,36.30
2009,07,28,14,29,36.30
2009,07,28,14,30,36.30
2009,07,28,14,31,36.30
2009,07,28,14,32,36.30
2009,07,28,14,33,36.20
2009,07,28,14,34,36.10
2009,07,28,14,35,36.00
2009,07,28,14,36,36.00
2009,07,28,14,37,35.90
2009,07,28,14,38,35.80
2009,07,28,14,39,35.80
2009,07,28,14,40,35.90
2009,07,28,14,41,35.90
2009,07,28,14,42,35.90
2009,07,28,14,43,35.80
2009,07,28,14,44,35.80
2009,07,28,14,45,35.90
2009,07,28,14,46,35.90
2009,07,28,14,47,36.00
2009,07,28,14,48,36.00
2009,07,28,14,49,36.00
2009,07,28,14,50,36.00
2009,07,28,14,51,36.10
2009,07,28,14,52,36.10
2009,07,28,14,53,36.20
2009,07,28,14,54,36.20
2009,07,28,14,55,36.20
2009,07,28,14,56,36.30
2009,07,28,14,57,36.30
2009,07,28,14,58,36.40
2009,07,28,14,59,36.30
2009,07,28,15,00,36.20
2009,07,28,15,01,36.10
2009,07,28,15,02,36.00
2009,07,28,15,03,36.00
2009,07,28,15,04,35.90
2009,07,28,15,05,35.90
2009,07,28,15,06,35.90
2009,07,28,15,07,35.90
2009,07,28,15,08,35.80
2009,07,28,15,09,35.80
2009,07,28,15,10,35.80
2009,07,28,15,11,35.80
2009,07,28,15,12,35.80
2009,07,28,15,13,35.80
2009,07,28,15,14,35.70
2009,07,28,15,15,35.60
2009,07,28,15,16,35.50
2009,07,28,15,17,35.40
2009,07,28,15,18,35.40
2009,07,28,15,19,35.30
2009,07,28,15,20,35.20
2009,07,28,15,21,35.20
2009,07,28,15,22,35.20
2009,07,28,15,23,35.10
2009,07,28,15,24,35.10
2009,07,28,15,25,35.10
2009,07,28,15,26,35.20
2009,07,28,15,27,35.20
2009,07,28,15,28,35.20
2009,07,28,15,29,35.20
2009,07,28,15,30,35.30
2009,07,28,15,31,35.30
2009,07,28,15,32,35.30
2009,07,28,15,33,35.30
2009,07,28,15,34,35.40
2009,07,28,15,35,35.40
2009,07,28,15,36,35.40
2009,07,28,15,37,35.30
2009,07,28,15,38,35.30
2009,07,28,15,39,35.30
2009,07,28,15,40,35.30
2009,07,28,15,41,35.30
2009,07,28,15,42,35.30
2009,07,28,15,43,35.30
2009,07,28,15,44,35.30
2009,07,28,15,45,35.40
2009,07,28,15,46,35.40
2009,07,28,15,47,35.40
2009,07,28,15,48,35.50
2009,07,28,15,49,35.60
2009,07,28,15,50,35.80
2009,07,28,15,51,35.80
2009,07,28,15,52,35.90
2009,07,28,15,53,36.00
2009,07,28,15,54,36.00
2009,07,28,15,55,36.10
2009,07,28,15,56,36.10
2009,07,28,15,57,36.20
2009,07,28,15,58,36.30
2009,07,28,15,59,36.30
2009,07,28,16,00,36.20
2009,07,28,16,01,36.20
2009,07,28,16,02,36.20
2009,07,28,16,03,36.20
2009,07,28,16,04,36.20
2009,07,28,16,05,36.20
2009,07,28,16,06,36.30
2009,07,28,16,07,36.30
2009,07,28,16,08,36.40
2009,07,28,16,09,36.50
2009,07,28,16,10,36.50
2009,07,28,16,11,36.60
2009,07,28,16,12,36.70
2009,07,28,16,13,36.80
2009,07,28,16,14,36.80
2009,07,28,16,15,36.90
2009,07,28,16,16,36.90
2009,07,28,16,17,36.90
2009,07,28,16,18,37.00
2009,07,28,16,19,37.10
2009,07,28,16,20,37.10
2009,07,28,16,21,37.10
2009,07,28,16,22,37.10
2009,07,28,16,23,37.00
2009,07,28,16,24,37.00
2009,07,28,16,25,36.90
2009,07,28,16,26,36.90
2009,07,28,16,27,36.90
2009,07,28,16,28,36.80
2009,07,28,16,29,36.80
2009,07,28,16,30,36.80
2009,07,28,16,31,36.80
2009,07,28,16,32,36.80
2009,07,28,16,33,36.70
2009,07,28,16,34,36.70
2009,07,28,16,35,36.80
2009,07,28,16,36,36.80
2009,07,28,16,37,36.80
2009,07,28,16,38,36.70
2009,07,28,16,39,36.80
2009,07,28,16,40,36.80
2009,07,28,16,41,36.80
2009,07,28,16,42,36.80
2009,07,28,16,43,36.80
2009,07,28,16,44,36.80
2009,07,28,16,45,36.80
2009,07,28,16,46,36.80
2009,07,28,16,47,36.90
2009,07,28,16,48,36.90
2009,07,28,16,49,37.00
2009,07,28,16,50,37.00
2009,07,28,16,51,37.00
2009,07,28,16,52,36.90
2009,07,28,16,53,36.90
2009,07,28,16,54,36.90
2009,07,28,16,55,36.90
2009,07,28,16,56,36.90
2009,07,28,16,57,37.00
2009,07,28,16,58,37.00
2009,07,28,16,59,37.10
2009,07,28,17,00,37.10
2009,07,28,17,01,37.20
2009,07,28,17,02,37.10
2009,07,28,17,03,37.10
2009,07,28,17,04,37.10
2009,07,28,17,05,37.20
2009,07,28,17,06,37.20
2009,07,28,17,07,37.20
2009,07,28,17,08,37.20
2009,07,28,17,09,37.30
2009,07,28,17,10,37.30
2009,07,28,17,11,37.30
2009,07,28,17,12,37.30
2009,07,28,17,13,37.40
2009,07,28,17,14,37.40
2009,07,28,17,15,37.30
2009,07,28,17,16,37.30
2009,07,28,17,17,37.30
2009,07,28,17,18,37.30
2009,07,28,17,19,37.30
2009,07,28,17,20,37.30
2009,07,28,17,21,37.30
2009,07,28,17,22,37.40